Location: Gairloch Mountain Observatory
(46.1383°N, 60.9640°W)
Time: 06:16:25
(UTC-04:00)

CENTAUR R/B - Visible Passes

Search period start: 04 December 2016 00:00
Search period end: 14 December 2016 00:00
Orbit: 843 x 1345 km, 63.5° (Epoch: 29 November)

Date Brightness Start Highest point End Pass type
(mag) Time Alt. Az. Time Alt. Az. Time Alt. Az.
04 Dec 4.2 03:24:17 28° E 03:24:17 28° E 03:29:08 10° NE visible
04 Dec 2.5 05:11:32 43° WSW 05:13:38 65° NW 05:20:40 10° NE visible
05 Dec 5.1 02:38:20 13° E 02:38:20 13° E 02:39:44 10° ENE visible
05 Dec 2.5 04:25:33 83° E 04:25:33 83° E 04:32:21 10° NE visible
05 Dec 3.5 06:12:47 17° W 06:16:54 31° NNW 06:23:15 10° NNE visible
06 Dec 3.7 03:39:26 38° ENE 03:39:26 38° ENE 03:43:56 10° NE visible
06 Dec 3.0 05:26:40 36° WNW 05:28:11 41° NW 05:34:56 10° NNE visible
07 Dec 4.8 02:53:13 19° ENE 02:53:13 19° ENE 02:55:17 10° NE visible
07 Dec 2.8 04:40:26 55° NNW 04:40:26 55° NNW 04:46:40 10° NE visible
07 Dec 3.9 06:27:38 14° WNW 06:31:57 24° NNW 06:37:45 10° NE visible
08 Dec 3.6 03:54:07 39° NE 03:54:07 39° NE 03:58:22 10° NE visible
08 Dec 3.5 05:41:18 26° NW 05:43:01 29° NNW 05:49:16 10° NNE visible
09 Dec 4.6 03:07:43 21° NE 03:07:43 21° NE 03:09:58 10° NE visible
09 Dec 3.3 04:54:55 37° NNW 04:54:55 37° NNW 05:00:56 10° NNE visible
09 Dec 4.2 06:42:09 10° NW 06:47:10 21° N 06:52:35 10° NE visible
10 Dec 5.4 02:21:16 10° NE 02:21:16 10° NE 02:21:23 10° NE visible
10 Dec 3.8 04:08:28 34° NNE 04:08:28 34° NNE 04:12:39 10° NE visible
10 Dec 3.9 05:55:39 19° NW 05:58:06 23° NNW 06:03:49 10° NE visible
11 Dec 4.5 03:21:57 23° NE 03:21:57 23° NE 03:24:22 10° NE visible
11 Dec 3.7 05:09:10 28° NNW 05:09:10 28° NNW 05:15:17 10° NNE visible
11 Dec 4.4 06:57:24 10° NW 07:02:29 20° N 07:07:55 10° NE visible
12 Dec 5.2 02:35:25 13° NE 02:35:25 13° NE 02:36:00 10° NE visible
12 Dec 3.9 04:22:36 29° N 04:22:36 29° N 04:26:55 10° NNE visible
12 Dec 4.2 06:09:48 14° NW 06:13:21 20° N 06:18:45 10° NE visible
13 Dec 4.5 03:36:02 22° NNE 03:36:02 22° NNE 03:38:39 10° NE visible
13 Dec 4.0 05:23:13 22° NNW 05:24:16 22° NNW 05:29:54 10° NE visible
